sat.trackr.live / text

‹ back to catalog

STARLINK-36843

NORAD 67856 · 2026-034G

PAYLOAD ACTIVE UNKNOWN

§ Identity

Operator
Country
US
Launch date
2026-02-20
Launch site
AFETR
Launch vehicle
Mass (kg)
RCS (m²)

Purposes: comms

External: N2YO · Heavens-Above · Gunter

§ Orbital elements

Epoch: 2026-05-25T04:44:52.433376Z

Period
94.10 min
Inclination
53.1567°
Eccentricity
0.0001136
Mean motion
15.30211256 rev/d
Perigee alt
474.4 km
Apogee alt
476.0 km
Semi-major
6,853.3 km
B*
4.3391e-4
RAAN
208.5872°
Arg perigee
84.7615°
Mean anomaly
275.3515°
Rev number
1,575

§ Raw data

STARLINK-368431 67856U 26034G   26145.19782909  .00012518  00000+0  43391-3 0  99992 67856  53.1567 208.5872 0001136  84.7615 275.3515 15.30211256 15757

JSON: /api/v1/satellites/67856 · /tle

For live sub-satellite position, see the globe view (requires WebGL).

§ Visibility from observer

Set your observer location to see the next 7 days of passes ≥ 10°. The values pass through the URL so the page stays shareable.

No JS? Fill the form by hand. The geolocation button needs JavaScript.